Skip Page Navigation
NASA JPL Caltech
NASA Logo - Jet Propulsion Laboratory + View the NASA Portal
+ Center for Near-Earth Object Studies
JPL Home Earth Solar System Stars & Galaxies Technology
JPL Solar System Dynamics
BODIES ORBITS EPHEMERIDES TOOLS PHYSICAL DATA DISCOVERY FAQ SITE MAP
IMPORTANT: The SSD Announcement email list is now available. Major changes are coming in the near future, including possible hostname and/or URL changes. To be notified of such changes, subscribe to this email list.

Please visit this page for more details.


JPL Small-Body Database Browser
Search: [ help ]  
462 Eriphyla (A900 UJ)
Classification: Main-belt Asteroid          SPK-ID: 2000462
Ephemeris | Orbit Diagram | Orbital Elements | Mission Design | Physical Parameters | Discovery Circumstances ]

[ show orbit diagram ]
Orbital Elements at Epoch 2458600.5 (2019-Apr-27.0) TDB
Reference: JPL 31 (heliocentric ecliptic J2000)
 Element Value Uncertainty (1-sigma)   Units 
e .08799001006151676 4.9466e-08  
a 2.872398803610285 1.2317e-08 au
q 2.619656403979928 1.4108e-07 au
i 3.192670005678403 4.4872e-06 deg
node 105.275106023165 8.8521e-05 deg
peri 251.1954773356841 9.2084e-05 deg
M 143.3812247007736 2.5878e-05 deg
tp 2457892.300986481909
(2017-May-18.80098648)
0.00012744 TDB
period 1778.138284134333
4.87
1.1437e-05
3.131e-08
d
yr
n .2024589443982766 1.3022e-09 deg/d
Q 3.125141203240643 1.3401e-08 au
  Orbit Determination Parameters
   # obs. used (total)      2536  
   data-arc span      43300 days (118.55 yr)  
   first obs. used      1900-10-23  
   last obs. used      2019-05-12  
   planetary ephem.      DE431  
   SB-pert. ephem.      SB431-N16  
   condition code      0  
   norm. resid. RMS      .47159  
   source      ORB  
   producer      Otto Matic  
   solution date      2019-May-29 19:07:53  

Additional Information
 Earth MOID = 1.61635 au 
 Jupiter MOID = 2.2672 au 
 T_jup = 3.289 
[ show covariance matrix ]

Ephemeris | Orbit Diagram | Orbital Elements | Mission Design | Physical Parameters | Discovery Circumstances ]

Physical Parameter Table
Parameter Symbol Value Units Sigma Reference Notes
absolute magnitude H 9.23   n/a IRAS-A-FPA-3-RDR-IMPS-V6.0 IRAS observations used: 8
diameter diameter 34.274 km 0.221 urn:nasa:pds:neowise_diameters_albedos::2.0[mainbelt] (http://adsabs.harvard.edu/abs/2014ApJ...791..121M)  
rotation period rot_per 8.659 h n/a LCDB (Rev. 2019-January); Warner et al., 2009 Published Reference List:
[Binzel, R.P. (1987) Icarus 72, 135-208.]
[Slivan, S.M.; Binzel, R.P. (1996) Icarus 124, 452-470.]
[Behrend, R. (2005) Observatoire de Geneve web site, http://obswww.unige.ch/~behrend/page_cou.html]
[Slivan, S.M.; Binzel, R.P.; Kaasalianen, M.; Hock, A.N.; et al. (2009) Icarus 200, 514-530.]
[Durech, J.; Hanus, J.; Ali-Lagoa, V. (2018) Astron. Astrophys. 617, A57.]
geometric albedo albedo 0.259   0.063 urn:nasa:pds:neowise_diameters_albedos::2.0[mainbelt] (http://adsabs.harvard.edu/abs/2014ApJ...791..121M)  
B-V BV 0.834   0.041 EAR-A-5-DDR-UBV-MEAN-VALUES-V1.2 #obs=3; phase (min.=7.13, mean=10.58, max.=15.66) deg.
U-B UB 0.421   0.030 EAR-A-5-DDR-UBV-MEAN-VALUES-V1.2 #obs=4; phase (min.=7.13, mean=9.81, max.=15.66) deg.
Tholen spectral type spec_T S   n/a EAR-A-5-DDR-TAXONOMY-V4.0 used 4 color indices; used ground-based radiometric albedo
SMASSII spectral type spec_B S   n/a EAR-A-5-DDR-TAXONOMY-V4.0 based on a high-resolution spectrum by Xu et al. (1995) or Bus and Binzel (2002)

462 Eriphyla (A900 UJ)          Discovered 1900-Oct-22 by Wolf, M. at Heidelberg
Reference: DISCOVERY.DBLast Updated: 2003-08-29

Alternate Designations
 A900 UJ = 1927 CP = 1946 DB = 1948 OG = 1951 EA3 = 1957 KB = 1958 RR = 1959 WB = A896 YA = A907 BB 
Ephemeris | Orbit Diagram | Orbital Elements | Mission Design | Physical Parameters | Discovery Circumstances ]
ABOUT SSD CREDITS/AWARDS PRIVACY/COPYRIGHT GLOSSARY LINKS
FirstGov
(server date/time)  
NASA Home Page
Site Manager:   Ryan S. Park
Webmaster  Alan B. Chamberlin